DateTimeUTC,F1_A11,F1_S11,BsB_S11,BsG_S11,BsR_S11,BbsB_S11,BbsG_S11,BbsR_S11,BaB_A11,BaG_A11,BaR_A11,Tu_S11,T_S11,Uu_S11,U_S11,P_S11,T1_A11
2021-11-10T03:00:00Z,00000200,21000000,,,,,,,0000.03,0000.11,0000.33,18.5,25.3,,00.0,0639.0,31.0
2021-11-10T03:01:00Z,00000200,21000000,,,,,,,-000.23,-000.08,0000.13,18.5,25.4,,00.0,0639.0,31.0
2021-11-10T03:02:00Z,00000200,21000000,,,,,,,-000.15,-000.07,-000.20,18.5,25.4,,00.0,0639.1,31.0
2021-11-10T03:03:00Z,00000200,61000000,,,,,,,0000.10,0000.26,-000.15,18.5,25.4,,00.0,0639.1,31.0
2021-11-10T03:04:00Z,00000200,41000000,-000.13,0000.19,0000.14,0000.14,0000.36,0000.55,-000.13,-000.57,0000.09,18.9,25.4,,00.0,0640.0,31.0
2021-11-10T03:05:00Z,00000200,01000000,0000.19,0000.17,0000.22,0000.29,0000.16,0000.13,-000.03,0000.12,-000.28,19.0,25.4,,00.0,0640.1,31.0
2021-11-10T03:06:00Z,00000200,01000000,-000.30,0000.09,0000.23,0000.33,0000.08,0000.44,0000.05,-000.05,0000.05,19.0,25.4,,00.0,0640.0,31.0
2021-11-10T03:07:00Z,00000200,01000000,0000.02,0000.29,-000.16,0000.15,-000.08,0000.45,-000.30,0000.18,0000.09,18.9,25.3,,00.0,0640.1,31.0
2021-11-10T03:08:00Z,00000200,01000000,0000.27,0000.16,-000.37,0000.39,-000.01,0000.05,0000.10,-000.23,-000.30,18.8,25.3,,00.0,0640.0,31.0
2021-11-10T03:09:00Z,00000200,01000000,0000.22,0000.60,-000.35,-000.14,0000.31,-000.04,0000.20,0000.02,-000.10,18.7,25.2,,00.0,0640.1,30.9
2021-11-10T03:10:00Z,00000200,01000000,0000.03,0000.25,-000.00,0000.37,0000.26,0000.17,-000.42,0000.02,0000.27,18.7,25.2,,00.0,0640.1,30.9
2021-11-10T03:11:00Z,00000200,01000000,-000.41,-000.02,0000.17,0000.19,0000.01,0000.45,0000.34,0000.22,0000.17,18.7,25.2,,00.0,0640.1,30.9
2021-11-10T03:12:00Z,00000200,01000000,-000.35,-000.21,-000.10,0000.24,0000.11,0000.28,-000.06,-000.58,-000.25,18.8,25.2,,00.0,0640.1,31.0
2021-11-10T03:13:00Z,00000200,01000000,0000.32,0000.26,0000.17,-000.54,0000.51,0000.33,-000.12,0000.51,-000.30,18.8,25.2,,00.0,0640.1,31.0
2021-11-10T03:14:00Z,00000200,01000000,0000.35,0000.09,-000.20,0000.10,0000.16,0000.13,0000.36,-000.02,0000.41,18.9,25.3,,00.0,0640.1,31.0
2021-11-10T03:15:00Z,00000200,01000000,0000.06,0000.23,-000.34,0000.16,0000.16,0000.07,-000.43,-000.32,-000.48,18.9,25.3,,00.0,0640.1,31.0
2021-11-10T03:16:00Z,00000200,01000000,0000.18,0000.41,0000.25,0000.41,-000.05,0000.47,0000.03,-000.17,0000.15,19.0,25.3,,00.0,0640.2,31.0
2021-11-10T03:17:00Z,00000200,01000000,0000.11,0000.28,-000.35,-000.36,0000.23,-000.12,-000.06,-000.08,-000.10,19.0,25.3,,00.0,0640.2,31.0
2021-11-10T03:18:00Z,00000200,01000000,0000.82,0000.41,-000.28,-000.17,0000.44,0000.30,0000.09,0000.12,0000.07,19.1,25.4,,00.0,0640.2,31.0
2021-11-10T03:19:00Z,00000200,01000000,-000.52,0000.13,-000.27,0000.16,0000.03,-000.09,-000.27,-000.20,-000.36,19.0,25.4,,00.0,0640.2,31.0
2021-11-10T03:20:00Z,00000200,01000000,0000.04,-000.20,-000.06,-000.07,0000.10,-000.03,-000.15,-000.00,0000.09,19.0,25.3,,00.0,0640.2,31.0
2021-11-10T03:21:00Z,00000200,01000000,-000.08,0000.36,-000.09,-000.49,-000.16,0000.06,-000.01,-000.37,-000.33,18.9,25.3,,00.0,0640.2,31.0
2021-11-10T03:22:00Z,00000200,01000000,0000.90,0000.08,-000.07,0000.11,0000.07,0000.09,0000.25,-000.13,-000.14,18.8,25.2,,00.0,0640.2,30.9
2021-11-10T03:23:00Z,00000200,01000000,0000.85,0000.48,-000.13,-000.31,-000.13,0000.37,0000.02,0000.62,0000.40,18.7,25.2,,00.0,0640.2,30.9
2021-11-10T03:24:00Z,00000200,01000000,0000.14,0000.33,0000.10,0000.62,0000.12,0000.31,-000.13,-000.42,-000.18,18.6,25.2,,00.0,0640.2,30.9
2021-11-10T03:25:00Z,00000200,01000000,0000.26,0000.22,0000.06,0000.07,0000.19,0000.01,-000.14,0000.14,-000.14,18.5,25.1,,00.0,0640.2,30.9
2021-11-10T03:26:00Z,00000200,01000000,-000.03,0000.25,0000.17,0000.27,-000.07,0000.52,0000.22,-000.12,0000.57,18.6,25.2,,00.0,0640.2,30.9
2021-11-10T03:27:00Z,00000200,01000000,0000.81,0000.24,-000.03,0000.59,0000.32,0000.17,0000.31,0000.49,0000.05,18.6,25.2,,00.0,0640.2,30.9
2021-11-10T03:28:00Z,00000200,01000000,0000.42,0000.39,-000.26,0000.00,0000.14,0000.38,-000.05,0000.23,0000.20,18.7,25.2,,00.0,0640.2,31.0
2021-11-10T03:29:00Z,00000200,01000000,-000.66,0000.23,-000.08,0000.13,-000.00,0000.20,0000.09,0000.27,0000.04,18.8,25.2,,00.0,0640.1,31.0
2021-11-10T03:30:00Z,00000200,01000000,-000.04,-000.01,-000.35,0000.30,0000.04,0000.05,0000.39,-000.14,0000.24,18.8,25.2,,00.0,0640.1,31.0
2021-11-10T03:31:00Z,00000200,01000000,-000.04,-000.25,0000.04,0000.03,0000.10,0000.13,0000.05,0000.22,0000.25,18.8,25.2,,00.0,0640.1,31.0
2021-11-10T03:32:00Z,00000200,01000000,0000.28,0000.53,-000.16,0000.72,0000.09,0000.20,-000.10,-000.34,-000.19,18.9,25.3,,00.0,0640.1,31.0
2021-11-10T03:33:00Z,00000200,01000000,0000.67,0000.16,-000.21,0000.16,-000.07,-000.04,0000.13,0000.52,0000.12,18.8,25.2,,00.0,0640.1,31.0
2021-11-10T03:34:00Z,00000200,01000000,0000.26,0000.33,-000.06,0000.77,0000.13,0000.01,0000.03,-000.25,0000.00,18.7,25.2,,00.0,0640.1,31.0
2021-11-10T03:35:00Z,00000200,01000000,0000.91,0000.56,0000.07,0000.18,0000.12,0000.24,-000.19,0000.40,0000.01,18.6,25.2,,00.0,0640.1,30.9
2021-11-10T03:36:00Z,00000200,01000000,-000.48,0000.24,-000.05,0000.84,-000.09,0000.37,0000.59,-000.30,-000.21,18.6,25.1,,00.0,0640.1,30.9
2021-11-10T03:37:00Z,00000200,01000000,0000.23,0000.20,0000.01,0000.20,0000.11,-000.09,-000.33,0000.34,0000.14,18.5,25.1,,00.0,0640.1,30.9
2021-11-10T03:38:00Z,00000200,01000000,-000.08,-000.23,0000.17,0000.69,-000.25,0000.41,0000.04,-000.30,-000.24,18.4,25.0,,00.0,0640.0,30.9
2021-11-10T03:39:00Z,00000200,01000000,-000.11,0000.07,0000.11,-000.07,0000.19,0000.07,-000.19,0000.13,0000.33,18.3,25.0,,00.0,0640.0,30.8
2021-11-10T03:40:00Z,00000200,01000000,-000.35,-000.09,-000.48,0000.35,-000.16,0000.04,0000.21,-000.08,-000.17,18.3,25.0,,00.0,0640.0,30.8
2021-11-10T03:41:00Z,00000200,01000000,-000.18,-000.30,0000.10,0000.26,-000.30,0000.10,0000.17,0000.00,0000.12,18.3,25.0,,00.0,0640.0,30.9
2021-11-10T03:42:00Z,00000200,01000000,-000.12,0000.03,-000.54,0000.03,-000.11,-000.35,0000.13,0000.41,0000.17,18.4,25.0,,00.0,0640.0,30.9
2021-11-10T03:43:00Z,00000200,01000000,-000.74,-000.27,-000.12,-000.28,-000.00,0000.15,-000.02,0000.03,0000.37,18.4,25.0,,00.0,0640.0,30.9
2021-11-10T03:44:00Z,00000200,01000000,0000.04,0000.03,-000.16,-000.44,0000.01,0000.13,0000.33,0000.13,0000.18,18.5,25.0,,00.0,0640.0,31.0
2021-11-10T03:45:00Z,00000200,01000000,0000.13,0000.31,0000.19,0000.58,0000.17,0000.09,0000.29,0000.27,-000.08,18.6,25.0,,00.0,0640.0,31.0
2021-11-10T03:46:00Z,00000200,01000000,-000.63,-000.03,0000.07,0000.11,0000.02,0000.03,-000.31,0000.06,-000.12,18.6,25.0,,00.0,0640.0,31.0
2021-11-10T03:47:00Z,00000200,01000000,0000.27,-000.03,-000.28,0000.56,-000.10,0000.31,0000.52,-000.22,0000.37,18.7,25.1,,00.0,0640.0,31.0
2021-11-10T03:48:00Z,00000200,01000000,0000.25,0000.26,0000.22,-000.34,0000.20,0000.20,-000.36,0000.22,0000.20,18.8,25.1,,00.0,0640.0,31.0
2021-11-10T03:49:00Z,00000200,01000000,0000.55,0000.18,0000.03,-000.01,0000.11,0000.12,0000.05,-000.09,-000.34,18.8,25.1,,00.0,0640.0,31.0
2021-11-10T03:50:00Z,00000200,01000000,-000.45,0000.11,-000.30,0000.12,-000.13,0000.11,-000.22,-000.14,-000.17,18.9,25.2,,00.0,0640.0,31.0
2021-11-10T03:51:00Z,00000200,01000000,-000.08,0000.21,-000.31,0000.47,-000.06,0000.18,0000.29,-000.05,0000.08,18.8,25.2,,00.0,0640.0,31.0
2021-11-10T03:52:00Z,00000200,01000000,-000.15,0000.24,0000.09,0000.30,-000.15,0000.15,0000.15,0000.50,0000.23,18.7,25.1,,00.0,0640.0,30.9
2021-11-10T03:53:00Z,00000200,01000000,0000.17,-000.15,0000.07,0000.18,0000.26,0000.26,-000.29,-000.43,-000.09,18.6,25.1,,00.0,0640.0,30.9
2021-11-10T03:54:00Z,00000200,01000000,0000.85,0000.33,-000.39,0000.10,0000.14,-000.11,0000.29,0000.30,0000.17,18.5,25.0,,00.0,0640.0,30.9
2021-11-10T03:55:00Z,00000200,01000000,0000.79,-000.05,-000.03,0000.66,-000.06,0000.11,0000.03,0000.11,0000.03,18.5,25.0,,00.0,0640.0,30.9
2021-11-10T03:56:00Z,00000200,01000000,-000.60,0000.18,-000.12,0000.20,0000.09,0000.11,0000.06,0000.10,0000.26,18.5,25.0,,00.0,0640.0,30.9
2021-11-10T03:57:00Z,00000200,41000000,,,,,,,0000.07,0000.15,-000.14,18.6,25.1,,00.0,0639.9,30.9
2021-11-10T03:58:00Z,00000200,61000000,,,,,,,-000.10,-000.35,0000.23,18.4,25.2,,00.0,0639.1,31.0
2021-11-10T03:59:00Z,00000200,21000000,,,,,,,0000.16,0000.27,-000.06,18.4,25.3,,00.0,0639.1,31.0
